Location: Champs
(48.8539°N, 2.6040°E)
Time: 23:06:19
(UTC+00:00)

SPOT 1 Rocket Y - Pass Details

Date: 23 August 2022
Orbit: 784 x 832 km, 98.5° (Epoch: 07 October)

Event Time Altitude Azimuth Distance (km) Brightness Sun altitude
Exits shadow 19:39:14 - 144° (SE) 2,643 7.7 -8.3°
Reaches altitude 10° 19:39:55 10° 143° (SE) 2,378 7.5 -8.4°
Maximum altitude 19:44:59 51° 68° (ENE) 1,019 5.9 -9.1°
Drops below altitude 10° 19:50:10 10° 354° (N) 2,424 8.6 -9.9°
Sets 19:52:35 0° 350° (N) 3,368 9.5 -10.2°
